Weather in Domanichi

Russia / Bryansk Oblast     53°00′01″N   33°25′34″E
temp.,
°C
wind,
m/s
gust,
m/s
humid.,
%
clouds,
%
prec.,
mm/h
press.,
hPa
HPBL,
m
18 april, sun
sun1800:00+6ssw4892100 0.9 1017485
03:00+5s5694100 2.7 1016759
06:00+5sse3494100 1.3 1016646
09:00+7se468086 1.4 1017792
12:00+10e566597 0.2 10181282
15:00+10ene4558100 0.3 10181632
18:00+10nne3467100 0.1 1018653
21:00+6nne489339 0.3 1019188
19 april, mon
mon1900:00+5nne369629 0.0 1019154
03:00+3nne37966 0.0 1020148
06:00+5nne499297 0.0 1019310
09:00+7ne6984100 0.0 1019695
12:00+8ne588693 0.1 1019640
15:00+9ne577893 0.2 1019931
18:00+8ne6983100 0.0 1019730
21:00+6ene51088100 0.1 1019836
20 april, tue
tue2000:00+5ene4986100 0.1 1018938
03:00+5ne4889100 0.4 1017735
06:00+4ne5897100 0.4 1016499
09:00+3ne5996100 0.5 1015420
12:00+6ne5791100 0.0 1013490
15:00+9ne6775100 0.1 1011937
18:00+8ne6985100 0.1 1009743
21:00+5nne6994100 0.1 1007532
21 april, wed
wed2100:00+4n61096100 0.0 1004657
03:00+3nnw61096100 0.6 1003562
06:00+3nw5996100 0.1 1004668
09:00+3w6996100 0.1 1005674
12:00+4wsw6996100 0.1 1007725
15:00+9w6963100 0.3 10081600
18:00+7sw477875 0.1 1010788
21:00+5ssw358775 0.1 1011113
22 april, thu
thu2200:00+3sw339054 0.1 101238
03:00+2ssw34928 0.1 101470
06:00+3s338931 0.0 101435
09:00+9s46805 0.0 1014427
12:00+13ssw685912 0.5 10141404
15:00+15ssw684962 1.0 10132092
18:00+14ssw5862100 0.6 1014587
21:00+10ssw3888100 3.0 1015194